Location: Oberkirch
(48.5323°N, 8.0787°E)
Time: 16:53:11
(UTC+00:00)

SL-24 R/B - RUBIN 2 - Pass Details

Date: 19 February 2026
Orbit: 603 x 984 km, 64.6° (Epoch: 8 March)

Event Time Altitude Azimuth Distance (km) Brightness Sun altitude
Exits shadow 02:35:13 10° 26° (NNE) 2,002 6.7 -38.2°
Drops below altitude 10° 02:35:20 - 26° (NNE) 2,046 6.8 -38.2°
Sets 02:37:38 0° 36° (NE) 2,889 7.8 -37.9°
